CES5255 ZSNJ-ZSHC

Flight info

Callsign CES5255
Flight time 0h 31m
Altitude 14800
Route TES52X TESIG A470 IGRAT IGRAT91
Aircraft A320/M-SDE3FGHIRWY/LB1

Departure

Time 2026-05-08 16:59
Airport Nanjing Lukou International Airport (ZSNJ)

Arrival

Time 2026-05-08 17:31
Airport Hangzhou Xiaoshan International Airport (ZSHC)
Time Latitude Longitude Altitude Speed Heading
2026-05-08 16:19 31.73550 118.86428 59 ft 0 kts 70°
2026-05-08 16:48 31.73549 118.86424 58 ft 3 kts 70°
2026-05-08 16:48 31.73540 118.86395 53 ft 4 kts 70°
2026-05-08 16:48 31.73531 118.86365 53 ft 4 kts 70°
2026-05-08 16:49 31.73523 118.86341 50 ft 4 kts 75°
2026-05-08 16:49 31.73519 118.86310 52 ft 4 kts 97°
2026-05-08 16:49 31.73526 118.86282 58 ft 2 kts 123°
2026-05-08 16:49 31.73529 118.86277 50 ft 0 kts 123°
2026-05-08 16:51 31.73525 118.86285 57 ft 2 kts 123°
2026-05-08 16:51 31.73509 118.86309 52 ft 5 kts 134°
2026-05-08 16:52 31.73474 118.86338 53 ft 7 kts 147°
2026-05-08 16:52 31.73423 118.86376 56 ft 10 kts 148°
2026-05-08 16:52 31.73356 118.86425 57 ft 13 kts 148°
2026-05-08 16:52 31.73301 118.86457 54 ft 9 kts 172°
2026-05-08 16:53 31.73190 118.86331 52 ft 14 kts 227°
2026-05-08 16:53 31.73097 118.86353 52 ft 16 kts 148°
2026-05-08 16:53 31.72994 118.86429 53 ft 19 kts 148°
2026-05-08 16:54 31.72876 118.86516 51 ft 21 kts 148°
2026-05-08 16:54 31.72744 118.86613 51 ft 23 kts 147°
2026-05-08 16:54 31.72615 118.86708 52 ft 12 kts 148°
2026-05-08 16:54 31.72613 118.86799 54 ft 14 kts 59°
2026-05-08 16:55 31.72668 118.86902 50 ft 16 kts 58°
2026-05-08 16:55 31.72734 118.87024 54 ft 19 kts 58°
2026-05-08 16:55 31.72809 118.87165 55 ft 21 kts 57°
2026-05-08 16:55 31.72893 118.87321 53 ft 24 kts 58°
2026-05-08 16:56 31.72985 118.87492 56 ft 26 kts 58°
2026-05-08 16:56 31.73085 118.87680 53 ft 28 kts 58°
2026-05-08 16:56 31.73179 118.87856 53 ft 14 kts 58°
2026-05-08 16:56 31.73192 118.87921 58 ft 8 kts 114°
2026-05-08 16:57 31.73143 118.87968 54 ft 11 kts 147°
2026-05-08 16:57 31.73079 118.88016 55 ft 6 kts 149°
2026-05-08 16:57 31.73046 118.87991 53 ft 8 kts 237°
2026-05-08 16:57 31.73041 118.87983 53 ft 0 kts 237°
2026-05-08 16:58 31.73038 118.87977 57 ft 7 kts 237°
2026-05-08 16:58 31.72880 118.87678 49 ft 79 kts 238°
2026-05-08 16:59 31.72478 118.86929 54 ft 135 kts 237°
2026-05-08 16:59 31.71912 118.85868 145 ft 169 kts 236°
2026-05-08 16:59 31.71299 118.84708 832 ft 167 kts 238°
2026-05-08 16:59 31.70677 118.83534 1385 ft 174 kts 237°
2026-05-08 17:00 31.69987 118.82262 1696 ft 195 kts 237°
2026-05-08 17:00 31.69220 118.80836 1979 ft 218 kts 237°
2026-05-08 17:00 31.68372 118.79250 2320 ft 239 kts 238°
2026-05-08 17:00 31.67484 118.77579 3126 ft 242 kts 239°
2026-05-08 17:01 31.66596 118.75904 4044 ft 240 kts 240°
2026-05-08 17:01 31.65715 118.74252 4992 ft 238 kts 241°
2026-05-08 17:01 31.64673 118.72777 5839 ft 242 kts 216°
2026-05-08 17:01 31.63111 118.72077 6691 ft 244 kts 184°
2026-05-08 17:02 31.61446 118.72372 7486 ft 245 kts 155°
2026-05-08 17:02 31.60100 118.73586 8231 ft 247 kts 125°
2026-05-08 17:02 31.59429 118.75423 8975 ft 249 kts 95°
2026-05-08 17:02 31.59618 118.77421 9697 ft 248 kts 64°
2026-05-08 17:03 31.60387 118.79248 10398 ft 252 kts 59°
2026-05-08 17:03 31.61195 118.81090 11085 ft 256 kts 59°
2026-05-08 17:03 31.62011 118.82960 11789 ft 260 kts 59°
2026-05-08 17:03 31.62839 118.84865 12505 ft 264 kts 59°
2026-05-08 17:04 31.63678 118.86799 13219 ft 268 kts 59°
2026-05-08 17:04 31.64527 118.88764 13947 ft 272 kts 59°
2026-05-08 17:04 31.65267 118.90830 14550 ft 279 kts 73°
2026-05-08 17:04 31.65619 118.93098 14896 ft 287 kts 86°
2026-05-08 17:05 31.65489 118.95441 14977 ft 301 kts 105°
2026-05-08 17:05 31.64656 118.97810 14996 ft 328 kts 121°
2026-05-08 17:05 31.63812 118.99339 14993 ft 346 kts 129°
2026-05-08 17:05 31.61507 119.02214 14984 ft 377 kts 143°
2026-05-08 17:06 31.60098 119.03479 14981 ft 392 kts 145°
2026-05-08 17:06 31.57112 119.06102 14983 ft 406 kts 145°
2026-05-08 17:06 31.54843 119.08105 14990 ft 408 kts 145°
2026-05-08 17:06 31.52579 119.10108 14982 ft 409 kts 145°
2026-05-08 17:07 31.51076 119.11436 14978 ft 409 kts 145°
2026-05-08 17:07 31.48799 119.13440 14980 ft 409 kts 145°
2026-05-08 17:07 31.46526 119.15435 14977 ft 409 kts 145°
2026-05-08 17:07 31.44240 119.17434 14980 ft 408 kts 145°
2026-05-08 17:08 31.41961 119.19421 14977 ft 408 kts 146°
2026-05-08 17:08 31.39682 119.21402 14975 ft 408 kts 146°
2026-05-08 17:08 31.37400 119.23390 14978 ft 408 kts 146°
2026-05-08 17:08 31.35126 119.25374 14974 ft 408 kts 146°
2026-05-08 17:09 31.32845 119.27365 14977 ft 408 kts 146°
2026-05-08 17:09 31.30569 119.29349 14979 ft 408 kts 146°
2026-05-08 17:09 31.28294 119.31333 14980 ft 408 kts 146°
2026-05-08 17:09 31.26019 119.33316 14981 ft 408 kts 146°
2026-05-08 17:10 31.23740 119.35297 14984 ft 408 kts 146°
2026-05-08 17:10 31.21459 119.37277 14982 ft 408 kts 146°
2026-05-08 17:10 31.19209 119.39230 14984 ft 408 kts 146°
2026-05-08 17:10 31.16934 119.41214 14984 ft 408 kts 146°
2026-05-08 17:11 31.14657 119.43204 14991 ft 408 kts 146°
2026-05-08 17:11 31.12385 119.45193 14993 ft 407 kts 146°
2026-05-08 17:11 31.10117 119.47181 14993 ft 407 kts 146°
2026-05-08 17:11 31.07882 119.49134 14997 ft 407 kts 146°
2026-05-08 17:12 31.05585 119.51137 14997 ft 407 kts 146°
2026-05-08 17:12 31.03345 119.53089 14999 ft 407 kts 146°
2026-05-08 17:12 31.01078 119.55061 14995 ft 406 kts 146°
2026-05-08 17:12 30.98812 119.57034 14998 ft 406 kts 146°
2026-05-08 17:13 30.96547 119.59007 14997 ft 406 kts 146°
2026-05-08 17:13 30.94276 119.60984 14996 ft 406 kts 146°
2026-05-08 17:13 30.92013 119.62954 14996 ft 406 kts 146°
2026-05-08 17:13 30.89748 119.64926 14994 ft 406 kts 146°
2026-05-08 17:14 30.87486 119.66893 14996 ft 406 kts 146°
2026-05-08 17:14 30.85246 119.68836 14996 ft 406 kts 147°
2026-05-08 17:14 30.82976 119.70801 14993 ft 406 kts 147°
2026-05-08 17:14 30.80707 119.72762 14992 ft 406 kts 147°
2026-05-08 17:15 30.78439 119.74722 14991 ft 406 kts 147°
2026-05-08 17:15 30.76166 119.76688 14991 ft 406 kts 147°
2026-05-08 17:15 30.73906 119.78646 14988 ft 401 kts 147°
2026-05-08 17:15 30.71728 119.80541 14989 ft 385 kts 147°
2026-05-08 17:16 30.69604 119.82421 14996 ft 383 kts 146°
2026-05-08 17:16 30.67506 119.84321 14994 ft 382 kts 146°
2026-05-08 17:16 30.65419 119.86234 14994 ft 382 kts 145°
2026-05-08 17:16 30.63279 119.87972 14996 ft 378 kts 154°
2026-05-08 17:17 30.60977 119.89454 14992 ft 378 kts 155°
2026-05-08 17:17 30.58667 119.90927 14998 ft 379 kts 155°
2026-05-08 17:17 30.56357 119.92391 14998 ft 379 kts 155°
2026-05-08 17:17 30.54064 119.93847 14979 ft 368 kts 155°
2026-05-08 17:18 30.51865 119.95248 14860 ft 354 kts 155°
2026-05-08 17:18 30.49758 119.96588 14736 ft 335 kts 156°
2026-05-08 17:18 30.47763 119.97857 14437 ft 321 kts 156°
2026-05-08 17:18 30.45820 119.99088 13952 ft 316 kts 156°
2026-05-08 17:19 30.43885 120.00307 13351 ft 318 kts 155°
2026-05-08 17:19 30.41949 120.01523 12942 ft 314 kts 155°
2026-05-08 17:19 30.40066 120.02711 12348 ft 311 kts 154°
2026-05-08 17:19 30.38180 120.03904 11776 ft 307 kts 154°
2026-05-08 17:20 30.36316 120.05086 11219 ft 303 kts 153°
2026-05-08 17:20 30.34474 120.06254 10669 ft 300 kts 153°
2026-05-08 17:20 30.32650 120.07405 10135 ft 297 kts 153°
2026-05-08 17:20 30.30838 120.08545 9533 ft 294 kts 153°
2026-05-08 17:21 30.29039 120.09678 9129 ft 294 kts 153°
2026-05-08 17:21 30.27249 120.10806 8829 ft 292 kts 153°
2026-05-08 17:21 30.25472 120.11925 8503 ft 290 kts 152°
2026-05-08 17:21 30.23691 120.13018 8189 ft 288 kts 157°
2026-05-08 17:22 30.21754 120.13425 7883 ft 283 kts 186°
2026-05-08 17:22 30.19922 120.12704 7555 ft 279 kts 216°
2026-05-08 17:22 30.18629 120.11069 7119 ft 279 kts 240°
2026-05-08 17:22 30.17679 120.09041 6394 ft 294 kts 243°
2026-05-08 17:23 30.16475 120.07128 5998 ft 294 kts 219°
2026-05-08 17:23 30.14646 120.06189 5695 ft 290 kts 187°
2026-05-08 17:23 30.12684 120.06466 5274 ft 289 kts 158°
2026-05-08 17:23 30.10884 120.07506 4847 ft 290 kts 146°
2026-05-08 17:24 30.09406 120.09046 4402 ft 285 kts 119°
2026-05-08 17:24 30.08892 120.11181 4074 ft 276 kts 85°
2026-05-08 17:24 30.09452 120.13230 3922 ft 263 kts 62°
2026-05-08 17:24 30.10277 120.15057 3918 ft 249 kts 62°
2026-05-08 17:25 30.11052 120.16774 3922 ft 234 kts 62°
2026-05-08 17:25 30.11784 120.18391 3925 ft 219 kts 62°
2026-05-08 17:25 30.12465 120.19904 3926 ft 207 kts 62°
2026-05-08 17:25 30.13105 120.21328 3927 ft 193 kts 62°
2026-05-08 17:26 30.13714 120.22687 3928 ft 188 kts 62°
2026-05-08 17:26 30.14320 120.24042 3677 ft 192 kts 62°
2026-05-08 17:26 30.14928 120.25404 3287 ft 185 kts 62°
2026-05-08 17:26 30.15491 120.26666 3002 ft 172 kts 63°
2026-05-08 17:27 30.16018 120.27849 2771 ft 159 kts 63°
2026-05-08 17:27 30.16494 120.28918 2577 ft 142 kts 62°
2026-05-08 17:27 30.16936 120.29910 2379 ft 137 kts 62°
2026-05-08 17:27 30.17368 120.30881 2194 ft 134 kts 61°
2026-05-08 17:28 30.17795 120.31838 2017 ft 135 kts 61°
2026-05-08 17:28 30.18223 120.32797 1821 ft 133 kts 60°
2026-05-08 17:28 30.18648 120.33751 1617 ft 134 kts 60°
2026-05-08 17:28 30.19072 120.34705 1447 ft 134 kts 61°
2026-05-08 17:29 30.19499 120.35659 1299 ft 134 kts 61°
2026-05-08 17:29 30.19919 120.36616 1080 ft 134 kts 62°
2026-05-08 17:29 30.20343 120.37569 896 ft 132 kts 62°
2026-05-08 17:29 30.20767 120.38518 706 ft 133 kts 62°
2026-05-08 17:30 30.21194 120.39475 497 ft 134 kts 64°
2026-05-08 17:30 30.21621 120.40446 309 ft 136 kts 65°
2026-05-08 17:30 30.22046 120.41426 119 ft 136 kts 64°
2026-05-08 17:30 30.22463 120.42371 34 ft 122 kts 61°
2026-05-08 17:31 30.22785 120.43077 31 ft 73 kts 63°
2026-05-08 17:31 30.22940 120.43427 36 ft 32 kts 62°
2026-05-08 17:31 30.23023 120.43613 36 ft 14 kts 62°
2026-05-08 17:31 30.23107 120.43688 35 ft 15 kts 29°
2026-05-08 17:32 30.23185 120.43746 35 ft 12 kts 35°
2026-05-08 17:32 30.23195 120.43755 34 ft 0 kts 35°